Regional Weather Roundup
Issued by NWS Jackson, KY

Home | Current Version | Previous Version | Graphics & Text | Print | Product List | Glossary On
Versions: 1 2 3 4 5 6 7 8 9 10 11 12 13 14 15 16 17 18 19 20 21 22 23 24 25 26 27
000
ASUS43 KJKL 210210
RWRJKL

EAST KENTUCKY HOURLY WEATHER ROUNDUP
NATIONAL WEATHER SERVICE JACKSON KY
900 PM EST FRI JAN 20 2017

NOTE: "FAIR" INDICATES FEW OR NO CLOUDS BELOW 12,000 FEET WITH
NO SIGNIFICANT WEATHER AND/OR OBSTRUCTIONS TO VISIBILITY.

* THESE REPORTS ARE NOT UNDER NWS QUALITY CONTROL AND MAY NOT
  REPORT WEATHER SUCH AS PRECIPITATION AND FOG.

KYZ079-080-083-085-087-088-110-112-115-119-120-210300
...EASTERN KENTUCKY...

CITY           SKY/WX    TMP DP  RH WIND       PRES   REMARKS
JACKSON        CLOUDY    59  49  69 S3        29.82R
LONDON         CLOUDY    53  46  77 SE3       29.80S
SOMERSET*      PTCLDY    50  46  87 CALM      29.81R
MONTICELLO*    CLOUDY    46  44  93 W3        29.81S
WILLIAMSBURG*  CLOUDY    55  50  82 SE6       29.81S
MIDDLESBORO*   CLOUDY    49  48  96 CALM      29.84R
HARLAN APT*    MOCLDY    54  46  76 CALM      29.84R
PIKE CO APT*   MOCLDY    60  47  62 S3        29.84R
BIG SANDY APT* PTCLDY    58  50  73 S3        29.83R
MOREHEAD APT*  CLEAR     55  48  76 CALM      29.82R
ASHLAND*       CLEAR     48  46  93 CALM      29.79R
$$

KYZ035-036-041-042-044-050-067-078-099-210300
...CENTRAL KENTUCKY...

CITY           SKY/WX    TMP DP  RH WIND       PRES   REMARKS
MT STERLING*   PTCLDY    50  46  87 S5        29.80F
FLEMING/MASON* PTCLDY    51  48  89 SE5       29.80S
DANVILLE*      PTCLDY    48  46  93 S3        29.78F
LEXINGTON      PTCLDY    52  46  80 SE7       29.77F
FRANKFORT      PTCLDY    53  46  77 SE6       29.74F
LOUISVILLE     CLOUDY    57  49  74 S8        29.73R
LEBANON*         N/A     55  48  76 SE8       29.76S
GLASGOW*       PTCLDY    58  50  74 S5        29.75R
BOWLING GREEN  CLOUDY    58  51  78 S6        29.74S
$$

KYZ091>093-OHZ055-061-077-WVZ005-015-034-035-042-210300
...SOUTHERN OHIO/WEST VIRGINIA...

CITY           SKY/WX    TMP DP  RH WIND       PRES   REMARKS
COVINGTON      CLOUDY    52  48  86 SE5       29.74F
COLUMBUS       CLOUDY    53  48  83 S3        29.78S
DAYTON         CLOUDY    49  47  93 E6        29.76F
WILMINGTON     CLOUDY    50  46  86 SE3       29.77S
HUNTINGTON     PTCLDY    56  48  74 CALM      29.80R
CHARLESTON     CLOUDY    53  50  89 CALM      29.81R
PINEVILLE*     CLEAR     46  43  87 MISG      29.90R
BECKLEY        CLEAR     50  44  80 S6        29.86R
BLUEFIELD      CLOUDY    52  44  74 SW5       29.89R
LOGAN CO APT*    N/A     59  48  67 CALM      29.82S
$$

VAZ002-007-008-TNZ017-027-036-066-071-210300
...SOUTHWEST VIRGINIA/EAST TENNESSEE...

CITY           SKY/WX    TMP DP  RH WIND       PRES   REMARKS
WISE*          PTCLDY    55  45  67 SW8       29.88R
JONESVILLE*      N/A     50  48  93 CALM      29.87R
ABINGDON*      CLEAR     52  50  93 CALM      29.88R
BRISTOL        PTCLDY    49  46  90 CALM      29.86R
MORRISTOWN*    MOCLDY    54  50  87 CALM      29.84R
SEVIERVILLE*   CLEAR     50  46  87 CALM      29.84R
KNOXVILLE      MOCLDY    58  50  75 SE3       29.83R
LAFOLLETTE*    CLEAR     50  50 100 CALM      29.86R
OAK RIDGE      MOCLDY    55  50  83 CALM      29.84R
CROSSVILLE     CLOUDY    56  48  74 S5        29.83S
NASHVILLE      PTCLDY    60  51  72 S5        29.76R
$$

...KEY TO REMARKS...
VSB - VISIBILITY IN MILES
WCI - WIND CHILL INDEX
HX  - HEAT INDEX

$$




USA.gov is the U.S. government's official web portal to all federal, state and local government web resources and services.